1507892401.05,24,12.38,73972.0,1.17,-8.71,-7.87,0,*4A
1507892402.27,25,12.38,73970.5,1.15,-7.91,-7.05,0,*42
1507892403.51,26,12.38,73972.3,1.13,-8.07,-7.11,0,*42
1507892404.73,27,12.38,73972.0,1.13,-8.03,-6.73,0,*42
1507892405.97,28,12.38,73976.0,1.13,-7.61,-6.31,0,*40
1507892407.15,29,12.38,73974.3,1.11,-7.15,-6.05,0,*47
1507892408.35,30,12.38,73968.3,1.11,-6.43,-5.65,0,*48
1507892409.58,31,12.38,73964.5,1.09,-6.39,-5.93,0,*44
1507892410.78,32,12.38,73962.0,1.09,-7.15,-6.85,0,*4C
1507892411.97,33,12.38,73966.3,1.05,-7.11,-6.81,0,*41
1507892413.17,34,12.44,73962.8,1.05,-7.01,-6.55,0,*4E
1507892414.35,35,12.38,73956.8,1.05,-6.81,-6.43,0,*41
1507892415.55,36,12.38,73964.8,1.03,-6.43,-6.01,0,*4C
1507892416.78,37,12.38,73962.0,1.01,-6.27,-5.81,0,*46
1507892417.97,38,12.38,73968.8,1.01,-6.05,-5.77,0,*40
1507892419.2,39,12.44,73970.8,1.01,-6.19,-5.89,0,*4D
1507892420.43,40,12.38,73972.0,1.01,-5.77,-5.65,0,*4A
1507892421.69,41,12.38,73968.5,0.99,-5.81,-5.61,0,*76
1507892422.87,42,12.38,73972.0,0.97,-7.11,-6.89,0,*75
1507892424.07,43,12.38,73968.3,0.93,-7.57,-7.49,0,*7F
1507892425.33,44,12.38,73966.3,0.91,-7.57,-7.35,0,*71
1507892426.55,45,12.38,73968.3,0.87,-6.05,-5.93,0,*7F
1507892427.78,46,12.38,73968.8,0.85,-5.93,-5.81,0,*71
1507892428.98,47,12.38,73974.5,0.85,-5.69,-5.51,0,*78
1507892430.19,48,12.38,73974.0,0.83,-6.09,-6.01,0,*72
1507892431.43,49,12.38,73974.0,0.83,-5.85,-5.55,0,*76
1507892432.66,50,12.38,73972.8,0.83,-5.97,-5.85,0,*70
1507892433.89,51,12.38,73976.0,0.83,-5.35,-5.19,0,*7C
1507892435.1,52,12.38,73974.5,0.83,-6.51,-6.35,0,*73
1507892436.29,53,12.38,73974.8,0.81,-6.27,-6.01,0,*76
1507892437.49,54,12.38,73976.5,0.79,-6.69,-6.55,0,*7D
1507892438.72,55,12.38,73974.3,0.77,-5.93,-5.89,0,*76
1507892439.9,56,12.38,73978.0,0.73,-6.23,-6.35,0,*7D
1507892441.06,57,12.38,73980.5,0.73,-6.43,-6.35,0,*7A
1507892442.25,58,12.38,73976.8,0.69,-6.05,-5.93,0,*73
1507892443.49,59,12.38,73980.3,0.67,-5.93,-5.73,0,*7E
1507892444.73,60,12.38,73974.0,0.67,-5.89,-5.73,0,*7F
1507892445.97,61,12.38,73970.0,0.67,-5.03,-4.69,0,*76
1507892447.18,62,12.38,73960.3,0.67,-3.83,-3.71,0,*75
1507892448.37,63,12.38,73952.0,0.67,-3.15,-3.07,0,*7A
1507892449.53,64,12.38,73956.8,0.69,-3.23,-3.15,0,*75
1507892450.69,65,12.38,73954.5,0.73,-3.07,-2.99,0,*7C
1507892451.86,66,12.38,73958.0,0.77,-3.15,-3.07,0,*7E
1507892453.07,67,12.38,73956.5,0.77,-3.55,-3.55,0,*7C
1507892454.28,68,12.38,73962.5,0.79,-3.79,-3.83,0,*78
1507892455.48,69,12.38,73966.3,0.79,-3.15,-3.15,0,*7C
1507892456.65,70,12.38,73972.8,0.81,-2.91,-2.99,0,*7B
1507892457.85,71,12.38,73980.3,0.83,-3.11,-3.19,0,*78
1507892459.1,72,12.38,73976.8,0.83,-2.67,-2.71,0,*74
1507892460.31,73,12.38,73976.3,0.87,-2.95,-2.95,0,*76
1507892461.48,74,12.38,73992.8,0.89,-3.31,-3.35,0,*7B
1507892462.7,75,12.44,74006.5,0.89,-3.47,-3.47,0,*7E
1507892463.94,76,12.38,74008.5,0.91,-4.85,-4.85,0,*74
1507892465.2,77,12.38,74000.0,0.87,-5.03,-4.89,0,*71
1507892466.42,78,12.38,74000.3,0.87,-4.73,-4.41,0,*7C
1507892467.67,79,12.38,73992.5,0.87,-5.03,-4.81,0,*77
1507892468.86,80,12.38,73976.5,0.87,-4.37,-4.17,0,*78
1507892470.06,81,12.38,73964.8,0.87,-3.87,-3.83,0,*7F
1507892471.3,82,12.38,73970.5,0.87,-3.63,-3.51,0,*79
1507892472.5,83,12.38,73980.5,0.87,-4.29,-4.13,0,*70
1507892473.74,84,12.38,73960.0,0.87,-4.93,-4.73,0,*70
1507892474.95,85,12.38,73942.5,0.83,-4.57,-4.33,0,*79
1507892476.17,86,12.38,73938.8,0.83,-3.67,-3.39,0,*73
1507892477.39,87,12.38,73938.0,0.85,-3.71,-3.63,0,*7C
1507892478.62,88,12.38,73948.5,0.85,-5.15,-5.07,0,*73
1507892479.83,89,12.38,73954.0,0.83,-5.47,-5.55,0,*74
1507892481.08,90,12.38,73950.8,0.83,-4.93,-4.85,0,*78
1507892482.3,91,12.38,73952.8,0.81,-4.85,-4.85,0,*7C
1507892483.5,92,12.38,73958.0,0.79,-4.13,-4.21,0,*79
1507892484.75,93,12.38,73952.5,0.79,-3.59,-3.67,0,*74
1507892485.95,94,12.38,73960.0,0.81,-3.67,-3.79,0,*76
1507892487.2,95,12.38,73966.3,0.79,-3.47,-3.59,0,*70
1507892488.39,96,12.38,73964.3,0.81,-3.39,-3.51,0,*75
1507892489.58,97,12.38,73970.5,0.81,-3.75,-4.05,0,*7A
1507892490.77,98,12.38,73974.0,0.81,-3.19,-3.55,0,*7D
1507892491.96,99,12.38,73974.0,0.83,-2.87,-3.15,0,*7C
1507892493.17,100,12.38,73974.3,0.85,-2.51,-2.87,0,*4A
1507892494.37,101,12.38,73968.5,0.87,-2.39,-2.87,0,*47
1507892495.57,102,12.38,73974.5,0.89,-2.95,-3.47,0,*41
1507892496.78,103,12.38,73978.3,0.91,-3.39,-3.79,0,*43
1507892497.98,104,12.38,73974.8,0.89,-3.43,-3.95,0,*42
1507892499.15,105,12.38,73996.0,0.89,-3.31,-3.87,0,*45
1507892500.36,106,12.44,74012.3,0.93,-3.55,-4.33,0,*47
1507892501.57,107,12.38,73994.0,0.93,-4.41,-5.31,0,*47
1507892502.75,108,12.38,73984.8,0.93,-5.51,-6.39,0,*43
1507892503.95,109,12.38,73976.5,0.91,-5.51,-6.09,0,*43
1507892505.16,110,12.38,73996.8,0.93,-5.89,-6.55,0,*45
1507892506.37,111,12.38,74012.5,0.91,-5.51,-6.39,0,*49
1507892507.6,112,12.38,74006.3,0.91,-6.23,-7.19,0,*4F
1507892508.83,113,12.38,73996.3,0.93,-6.23,-7.31,0,*46
1507892510.06,114,12.38,73992.3,0.91,-6.69,-7.73,0,*4B
1507892511.27,115,12.38,74006.5,0.91,-7.19,-8.17,0,*41
1507892512.47,116,12.38,73998.5,0.89,-7.65,-8.59,0,*4A
1507892513.7,117,12.38,73982.5,0.87,-8.07,-9.79,0,*4D
1507892514.88,118,12.38,73994.8,0.89,-9.01,-10.85,0,*70
1507892516.11,119,12.44,73984.0,0.87,-9.83,-11.45,0,*78
1507892517.33,120,12.38,73952.0,0.85,-11.59,-12.43,0,*4B
1507892518.55,121,12.38,73958.5,0.81,-12.47,-12.11,0,*45
1507892519.77,122,12.38,73970.8,0.79,-12.03,-10.57,0,*41
1507892520.97,123,12.38,73978.8,0.77,-10.63,-8.71,0,*77
1507892522.16,124,12.38,73984.5,0.73,-8.63,-7.95,0,*48
1507892523.33,125,12.38,73984.8,0.77,-8.41,-8.67,0,*4F
1507892524.53,126,12.38,73986.8,0.67,-8.59,-10.01,0,*7D
1507892525.76,127,12.38,73996.8,0.69,-9.45,-11.37,0,*7A
1507892527.0,128,12.38,73988.8,0.67,-11.81,-13.87,0,*43
1507892528.23,129,12.38,73992.5,0.63,-12.35,-14.29,0,*49
1507892529.46,130,12.38,73994.8,0.63,-13.29,-13.55,0,*41
1507892530.68,131,12.38,73994.8,0.61,-14.55,-13.79,0,*40
1507892531.86,132,12.38,73988.8,0.57,-14.89,-13.23,0,*48
1507892533.09,133,12.38,73982.3,0.55,-14.15,-11.33,0,*4D
1507892534.33,134,12.44,73978.0,0.55,-11.93,-10.57,0,*42
1507892535.55,135,12.38,73976.5,0.55,-11.73,-11.01,0,*4F
1507892536.75,136,12.38,73972.5,0.53,-11.73,-11.23,0,*4A
1507892537.99,137,12.38,73982.3,0.51,-12.29,-11.63,0,*41
1507892539.22,138,12.44,73980.3,0.51,-13.19,-11.77,0,*49
1507892540.42,139,12.38,73976.5,0.47,-15.49,-13.07,0,*49
1507892541.65,140,12.38,73978.3,0.41,-15.85,-13.23,0,*47
1507892542.85,141,12.38,73970.3,0.37,-15.95,-14.37,0,*44
1507892544.11,142,12.38,73964.5,0.37,-13.61,-12.75,0,*4A
1507892545.29,143,12.38,73966.0,0.31,-11.23,-11.11,0,*48
1507892546.5,144,12.38,73956.8,0.33,-10.49,-10.27,0,*44
1507892547.68,145,12.38,73962.3,0.35,-9.79,-9.19,0,*4D
1507892548.84,146,12.38,73970.0,0.35,-9.75,-8.75,0,*49
1507892550.05,147,12.38,73974.3,0.39,-8.71,-7.73,0,*48
1507892551.27,148,12.38,73966.0,0.39,-8.07,-7.73,0,*46
1507892552.45,149,12.38,73966.0,0.43,-8.03,-8.67,0,*44
1507892553.67,150,12.38,73990.8,0.45,-7.65,-9.61,0,*42
1507892554.86,151,12.38,73992.5,0.53,-8.21,-11.33,0,*75
1507892556.07,152,12.44,73996.0,0.53,-11.07,-14.29,0,*44
1507892557.27,153,12.38,73998.3,0.57,-12.79,-15.15,0,*45
1507892558.5,154,12.38,74008.0,0.55,-14.55,-15.99,0,*4C
1507892559.7,155,12.38,74002.5,0.57,-15.43,-15.99,0,*49
1507892560.93,156,12.38,73996.3,0.57,-17.45,-16.31,0,*4F
1507892562.16,157,12.38,73996.3,0.59,-19.07,-16.09,0,*43
1507892563.4,158,12.38,73994.5,0.59,-20.99,-16.59,0,*44
1507892564.6,159,12.44,73988.3,0.59,-18.83,-13.51,0,*48
1507892565.83,160,12.38,73980.0,0.59,-15.53,-11.63,0,*41
1507892567.06,161,12.44,73986.0,0.61,-13.79,-10.79,0,*4F
1507892568.25,162,12.38,73984.8,0.61,-12.43,-10.35,0,*4C
1507892569.48,163,12.38,73994.3,0.63,-11.51,-10.27,0,*4C
1507892570.66,164,12.38,74002.0,0.65,-10.85,-10.23,0,*41
1507892571.86,165,12.38,74008.3,0.65,-11.29,-10.23,0,*47
1507892573.07,166,12.38,74000.5,0.69,-12.11,-10.01,0,*40
1507892574.27,167,12.44,74004.0,0.73,-12.03,-9.37,0,*74
1507892575.44,168,12.38,73994.3,0.73,-12.47,-9.79,0,*71
1507892576.65,169,12.38,73994.5,0.77,-11.89,-10.09,0,*4A
1507892577.92,170,12.44,74000.3,0.79,-11.73,-10.63,0,*45
1507892579.16,171,12.38,73998.5,0.79,-12.11,-10.57,0,*44
1507892580.41,172,12.38,74002.5,0.79,-12.61,-10.19,0,*4A
1507892581.63,173,12.38,74004.5,0.81,-12.71,-10.15,0,*41
1507892582.9,174,12.38,74000.3,0.79,-12.83,-10.75,0,*4A
1507892584.12,175,12.44,74012.0,0.81,-13.51,-11.73,0,*45
1507892585.31,176,12.38,74006.8,0.81,-13.23,-11.11,0,*47
1507892586.56,177,12.38,73998.8,0.81,-12.79,-10.41,0,*4C
1507892587.77,178,12.38,73984.3,0.81,-12.83,-10.05,0,*46
1507892589.01,179,12.38,73990.3,0.83,-12.57,-9.31,0,*73
1507892590.21,180,12.38,73992.5,0.85,-11.63,-8.59,0,*78
1507892591.4,181,12.44,73996.8,0.89,-10.93,-8.45,0,*76
1507892592.65,182,12.38,73996.0,0.91,-12.35,-10.01,0,*4B
1507892593.9,183,12.38,74002.8,0.91,-12.35,-10.31,0,*49
1507892595.13,184,12.38,74008.3,0.91,-12.21,-10.27,0,*4C
1507892596.39,185,12.38,74016.0,0.91,-10.71,-9.61,0,*70
1507892597.57,186,12.38,74014.3,0.93,-9.93,-9.75,0,*40
1507892598.78,187,12.38,74020.5,0.97,-9.83,-10.35,0,*78
1507892600.03,188,12.38,74020.0,0.97,-11.55,-12.53,0,*47
1507892601.27,189,12.38,74016.0,0.97,-13.01,-14.79,0,*4B
1507892602.51,190,12.38,74024.0,0.99,-14.33,-16.23,0,*46
1507892603.73,191,12.38,74010.3,0.97,-15.53,-17.41,0,*4B
1507892604.95,192,12.44,74016.0,0.97,-16.79,-17.59,0,*4A
1507892606.2,193,12.38,74018.3,0.97,-18.35,-17.03,0,*42
1507892607.41,194,12.38,74002.8,0.97,-18.93,-16.93,0,*41
1507892608.66,195,12.38,73996.3,0.97,-19.65,-17.59,0,*4F
1507892609.88,196,12.44,73996.5,0.97,-19.13,-16.23,0,*41
1507892611.15,197,12.38,74006.8,0.99,-22.77,-18.01,0,*4A
1507892612.4,198,12.44,74008.0,0.97,-23.33,-17.41,0,*41
1507892613.67,199,12.38,73998.5,0.99,-24.11,-17.41,0,*49
1507892614.86,200,12.38,73988.5,0.97,-22.93,-17.31,0,*4F
1507892616.07,201,12.44,73986.3,0.97,-21.39,-16.51,0,*4A
1507892617.26,202,12.38,73982.3,0.93,-19.47,-14.65,0,*4A
1507892618.49,203,12.38,73980.5,0.93,-19.27,-14.29,0,*45
1507892619.71,204,12.38,73986.0,0.99,-19.07,-13.15,0,*42
1507892620.93,205,12.38,73988.3,1.01,-18.17,-11.63,0,*70
1507892622.12,206,12.38,73998.3,1.05,-17.49,-10.57,0,*75
1507892623.36,207,12.38,74002.0,1.05,-15.57,-9.45,0,*42
1507892624.55,208,12.38,74002.0,1.11,-14.89,-9.93,0,*41
1507892625.81,209,12.38,74000.0,1.11,-14.47,-10.67,0,*71
1507892627.01,210,12.38,73998.3,1.11,-14.29,-11.15,0,*75
1507892628.23,211,12.38,74000.8,1.15,-14.43,-11.23,0,*79
1507892629.46,212,12.38,73998.8,1.13,-15.29,-11.45,0,*71
1507892630.66,213,12.38,74006.3,1.15,-15.53,-10.45,0,*7A
1507892631.86,214,12.38,74014.0,1.15,-16.59,-11.11,0,*74
1507892633.08,215,12.38,73962.5,1.15,-15.01,-10.15,0,*7E
1507892634.27,216,12.44,73980.0,1.15,-12.97,-8.25,0,*4F
1507892635.47,217,12.44,73974.8,1.15,-16.03,-10.05,0,*7C
1507892636.72,218,12.38,73960.5,1.15,-14.83,-7.99,0,*4A
1507892637.97,219,12.38,73960.3,1.15,-12.53,-5.61,0,*45
1507892639.2,220,12.38,73960.5,1.15,-9.49,-3.43,0,*78
1507892640.4,221,12.38,73970.5,1.17,-7.11,-2.91,0,*76
1507892641.63,222,12.38,73960.3,1.17,-6.63,-3.91,0,*70
1507892642.89,223,12.38,73956.0,1.17,-5.23,-3.51,0,*7A
1507892644.09,224,12.38,73972.0,1.21,-3.87,-2.87,0,*7A
1507892645.29,225,12.38,73978.3,1.21,-3.23,-2.79,0,*74
1507892646.54,226,12.38,73976.5,1.21,-3.67,-3.47,0,*7B
1507892647.79,227,12.38,73990.5,1.17,-5.89,-5.77,0,*7C
1507892648.98,228,12.38,74004.3,1.15,-4.57,-4.41,0,*77
1507892650.19,229,12.38,74000.3,1.13,-4.45,-4.33,0,*76
1507892651.43,230,12.38,73996.8,1.15,-5.07,-4.93,0,*75
1507892652.64,231,12.38,74000.0,1.11,-5.55,-5.77,0,*7C
1507892653.87,232,12.38,73988.5,1.09,-4.65,-4.81,0,*7C
1507892655.11,233,12.38,73986.3,1.07,-4.61,-4.93,0,*74
1507892656.32,234,12.44,73986.0,1.09,-4.05,-4.41,0,*70
1507892657.53,235,12.38,73982.0,1.05,-5.51,-5.65,0,*7A
1507892658.75,236,12.38,73976.0,1.05,-5.73,-5.65,0,*79
1507892660.0,237,12.38,73976.0,1.05,-5.31,-5.23,0,*7C
1507892661.2,238,12.38,73980.0,1.03,-4.49,-4.49,0,*76
1507892662.4,239,12.44,73986.3,1.03,-4.45,-4.25,0,*71
1507892663.61,240,12.38,73984.3,1.03,-4.65,-4.37,0,*7E
1507892664.87,241,12.38,73988.0,1.03,-5.15,-4.73,0,*79
1507892666.08,242,12.38,73986.3,1.05,-5.23,-4.61,0,*7A
1507892667.28,243,12.38,73988.0,1.05,-4.69,-3.91,0,*7C
1507892668.51,244,12.38,73986.3,1.07,-4.41,-3.63,0,*7E
1507892669.75,245,12.38,73990.0,1.07,-4.21,-3.51,0,*78
1507892670.93,246,12.38,73992.8,1.05,-3.95,-3.15,0,*71
1507892672.16,247,12.38,73988.5,1.07,-4.09,-3.63,0,*71
1507892673.41,248,12.38,74002.5,1.07,-5.47,-5.23,0,*77
1507892674.63,249,12.44,73998.5,1.03,-4.77,-4.99,0,*70
1507892675.81,250,12.44,73994.0,1.01,-5.55,-6.01,0,*78
1507892677.05,251,12.38,73988.3,1.01,-5.23,-5.81,0,*73
1507892678.27,252,12.44,73986.8,0.99,-5.55,-6.47,0,*48
1507892679.5,253,12.38,73966.5,0.99,-7.27,-8.37,0,*47
1507892680.73,254,12.38,73972.3,0.91,-8.25,-9.57,0,*42
1507892681.99,255,12.38,73968.0,0.87,-9.53,-10.67,0,*7F
1507892683.22,256,12.38,73964.8,0.83,-8.11,-8.67,0,*46
1507892684.48,257,12.38,73962.3,0.83,-7.57,-7.95,0,*48
1507892685.66,258,12.44,73958.5,0.81,-8.55,-8.37,0,*4F
1507892686.87,259,12.44,73962.5,0.81,-8.37,-7.69,0,*4E
1507892688.08,260,12.44,73960.0,0.79,-8.17,-6.59,0,*43
1507892689.31,261,12.38,73964.3,0.81,-7.57,-5.73,0,*45
1507892690.52,262,12.38,73970.3,0.83,-6.77,-4.65,0,*41
1507892691.71,263,12.38,73972.0,0.85,-6.35,-4.41,0,*46
1507892692.93,264,12.38,73970.3,0.87,-6.63,-4.65,0,*46
1507892694.14,265,12.44,73966.0,0.89,-6.55,-4.01,0,*4E
1507892695.37,266,12.38,73970.0,0.91,-5.65,-3.39,0,*48
1507892696.59,267,12.38,73964.5,0.91,-5.35,-3.51,0,*42
1507892697.77,268,12.38,73962.5,0.93,-4.53,-3.03,0,*49
1507892698.96,269,12.38,73968.8,0.97,-3.87,-2.95,0,*4C
1507892700.19,270,12.38,73968.8,0.99,-3.51,-2.83,0,*46
1507892701.4,271,12.38,73974.8,0.97,-3.27,-2.71,0,*45
1507892702.64,272,12.44,73980.8,0.99,-2.99,-2.63,0,*4F
1507892703.89,273,12.38,73976.0,1.03,-2.71,-2.59,0,*73
1507892705.12,274,12.38,73976.3,1.03,-2.67,-2.79,0,*71
1507892706.33,275,12.44,73978.8,1.05,-3.43,-3.83,0,*75
1507892707.53,276,12.38,73974.8,1.05,-3.27,-3.67,0,*7E
1507892708.76,277,12.38,73980.8,1.07,-3.19,-3.63,0,*74
1507892710.01,278,12.38,73982.5,1.07,-3.51,-3.55,0,*72
1507892711.25,279,12.38,73970.5,1.07,-5.19,-4.99,0,*7E
1507892712.46,280,12.38,73972.0,1.07,-4.53,-4.33,0,*77
1507892713.67,281,12.38,73974.5,1.07,-4.41,-3.95,0,*7E
1507892714.88,282,12.38,73974.8,1.09,-4.57,-4.13,0,*7D
1507892716.08,283,12.38,73976.3,1.11,-3.87,-3.55,0,*7A
1507892717.27,284,12.44,73980.0,1.11,-3.95,-3.87,0,*71
1507892718.45,285,12.38,73976.5,1.11,-4.49,-4.53,0,*78
1507892719.65,286,12.38,73982.8,1.11,-5.43,-5.77,0,*77
1507892720.86,287,12.38,73980.3,1.11,-5.11,-5.43,0,*76
1507892722.1,288,12.38,73980.8,1.11,-5.07,-5.81,0,*70
1507892723.31,289,12.38,73992.8,1.11,-5.93,-6.69,0,*79
1507892724.51,290,12.38,73998.3,1.11,-6.23,-6.85,0,*7B
1507892725.74,291,12.38,73990.0,1.09,-7.69,-8.25,0,*78
1507892726.92,292,12.44,73994.8,1.11,-8.33,-9.23,0,*75
1507892728.14,293,12.44,73994.8,1.09,-9.31,-10.35,0,*41
1507892729.38,294,12.44,73994.3,1.11,-12.57,-12.61,0,*76
1507892730.66,295,12.44,73986.3,1.07,-16.69,-14.83,0,*73
1507892731.92,296,12.44,73988.5,1.07,-19.27,-15.15,0,*7B
1507892733.11,297,12.38,73984.5,1.05,-19.91,-14.37,0,*74
1507892734.33,298,12.38,73988.0,1.05,-20.53,-13.43,0,*7B
1507892735.58,299,12.44,73994.8,1.03,-20.39,-11.63,0,*70
1507892736.76,300,12.44,73998.5,1.01,-20.09,-10.57,0,*76
1507892737.98,301,12.38,73980.8,1.03,-18.25,-8.97,0,*45
1507892739.18,302,12.38,73974.8,1.01,-15.57,-8.59,0,*4E
1507892740.37,303,12.38,73974.3,0.97,-13.51,-8.33,0,*7D
1507892741.6,304,12.38,73966.5,0.93,-11.67,-6.93,0,*7D
1507892742.85,305,12.38,73966.8,0.91,-10.15,-5.85,0,*7E
1507892744.03,306,12.38,73960.8,0.93,-7.87,-4.57,0,*4C
1507892745.23,307,12.38,73966.0,0.93,-6.09,-3.67,0,*4E
1507892746.43,308,12.44,73970.3,0.93,-5.47,-3.63,0,*4C
1507892747.63,309,12.38,73968.5,0.93,-4.81,-3.31,0,*41
1507892748.84,310,12.38,73974.5,0.97,-3.79,-2.71,0,*48
1507892750.05,311,12.38,73980.3,0.99,-2.99,-2.23,0,*4F
1507892751.28,312,12.38,73976.8,0.99,-3.11,-2.59,0,*40
1507892752.5,313,12.38,73972.8,1.01,-2.95,-2.67,0,*71
1507892753.68,314,12.44,73976.5,1.01,-2.99,-2.79,0,*75
1507892754.91,315,12.38,73972.8,1.05,-2.67,-2.55,0,*7F
1507892756.15,316,12.44,73972.5,1.05,-2.67,-2.63,0,*79
1507892757.39,317,12.38,73972.0,1.05,-2.63,-2.67,0,*78
1507892758.59,318,12.44,73980.8,1.09,-2.27,-2.35,0,*7C
1507892759.85,319,12.38,73980.3,1.09,-2.51,-2.59,0,*76
1507892761.09,320,12.38,73982.5,1.11,-2.55,-2.71,0,*7B
1507892762.29,321,12.38,73982.5,1.13,-2.87,-3.19,0,*78
1507892763.5,322,12.44,73980.5,1.13,-2.83,-3.11,0,*77
1507892764.73,323,12.38,73978.8,1.13,-2.67,-2.87,0,*72
1507892765.97,324,12.44,73980.8,1.15,-2.51,-2.75,0,*7B
1507892767.16,325,12.38,73978.3,1.15,-2.79,-2.95,0,*7E
1507892768.36,326,12.38,73978.5,1.21,-2.91,-3.11,0,*71
1507892769.56,327,12.44,73972.5,1.23,-3.31,-3.47,0,*7A
1507892770.77,328,12.38,73968.5,1.25,-3.07,-3.07,0,*72
1507892771.94,329,12.44,73972.8,1.23,-3.23,-3.23,0,*75
1507892773.14,330,12.38,73968.0,1.25,-3.31,-3.19,0,*71
1507892774.39,331,12.38,73968.0,1.25,-3.63,-3.43,0,*78
1507892775.62,332,12.44,73974.8,1.29,-3.47,-3.15,0,*72
1507892776.83,333,12.38,73978.0,1.29,-3.31,-2.95,0,*7B
1507892778.07,334,12.38,73978.0,1.29,-3.15,-2.71,0,*70
1507892779.25,335,12.38,73982.3,1.31,-3.27,-2.79,0,*71
1507892780.45,336,12.38,73982.3,1.33,-2.91,-2.39,0,*78
1507892781.69,337,12.38,73982.0,1.33,-3.15,-2.63,0,*7B
1507892782.89,338,12.38,73980.0,1.35,-3.31,-2.75,0,*73
1507892784.07,339,12.38,73986.0,1.35,-3.07,-2.43,0,*72
1507892785.27,340,12.44,73990.8,1.37,-2.79,-2.19,0,*79
1507892786.5,341,12.38,73992.0,1.37,-2.91,-2.51,0,*72
1507892787.73,342,12.38,73988.5,1.37,-3.07,-2.71,0,*7D
1507892788.97,343,12.44,73992.8,1.37,-2.95,-2.71,0,*76
1507892790.15,344,12.38,73992.3,1.39,-3.03,-2.91,0,*7F
1507892791.38,345,12.44,73988.3,1.39,-3.71,-3.71,0,*74
1507892792.57,346,12.38,73978.3,1.39,-4.17,-4.21,0,*72
1507892793.77,347,12.44,73974.3,1.35,-3.59,-3.75,0,*74
1507892795.0,348,12.44,73966.5,1.37,-3.67,-3.83,0,*7D
1507892796.23,349,12.38,73960.3,1.37,-3.19,-3.59,0,*72
1507892797.45,350,12.44,73960.3,1.37,-3.71,-4.09,0,*76
1507892798.68,351,12.44,73964.8,1.37,-3.55,-3.83,0,*74
1507892799.88,352,12.44,73968.3,1.35,-3.59,-3.87,0,*7D
1507892801.07,353,12.44,73968.3,1.35,-4.25,-4.61,0,*7F
1507892802.27,354,12.38,73968.0,1.35,-4.61,-5.15,0,*7A
1507892803.48,355,12.44,73974.5,1.35,-4.01,-4.53,0,*7E
1507892804.68,356,12.38,73978.5,1.35,-4.37,-4.89,0,*7F
1507892805.87,357,12.38,73980.5,1.35,-3.87,-4.49,0,*7E
1507892807.07,358,12.38,73984.3,1.35,-4.25,-4.85,0,*7E
1507892808.3,359,12.44,73986.5,1.33,-4.13,-4.81,0,*78
1507892809.49,360,12.44,73988.8,1.35,-3.95,-4.65,0,*77
1507892810.7,361,12.38,73986.3,1.35,-3.83,-4.73,0,*76
1507892811.89,362,12.44,73994.5,1.35,-5.55,-6.73,0,*7A
1507892813.08,363,12.38,73984.5,1.35,-4.85,-6.09,0,*7A
1507892814.25,364,12.38,73990.3,1.35,-5.39,-7.15,0,*77
1507892815.49,365,12.38,73984.5,1.33,-5.47,-7.43,0,*7A
1507892816.74,366,12.38,73980.0,1.33,-5.11,-7.43,0,*7A
1507892817.94,367,12.44,73998.3,1.31,-5.81,-8.55,0,*78
1507892819.2,368,12.44,73994.8,1.33,-6.27,-9.37,0,*7F
1507892820.45,369,12.38,73984.3,1.33,-6.93,-9.83,0,*7E
1507892821.68,370,12.38,73972.0,1.33,-7.39,-9.75,0,*7E
1507892822.93,371,12.44,73976.3,1.33,-7.61,-9.49,0,*7D
1507892824.15,372,12.44,73976.0,1.33,-8.89,-10.45,0,*43
1507892825.38,373,12.44,73970.5,1.33,-9.49,-10.53,0,*48
1507892826.6,374,12.38,73966.0,1.33,-9.71,-10.09,0,*4B
1507892827.82,375,12.38,73968.5,1.37,-9.49,-9.79,0,*7A
1507892829.06,376,12.38,73964.3,1.37,-10.01,-10.63,0,*7E
1507892830.33,377,12.44,73968.0,1.37,-11.67,-12.11,0,*79
1507892831.57,378,12.38,73990.0,1.37,-11.73,-11.15,0,*74
1507892832.81,379,12.44,73996.5,1.37,-12.57,-11.45,0,*75
1507892834.05,380,12.38,74004.5,1.37,-12.65,-10.97,0,*7C
1507892835.29,381,12.38,73986.0,1.37,-12.71,-10.57,0,*74
1507892836.54,382,12.38,73974.8,1.37,-13.29,-10.97,0,*77
1507892837.76,383,12.38,73962.5,1.39,-12.57,-9.79,0,*48
1507892838.96,384,12.44,73962.3,1.39,-11.73,-8.97,0,*4B
1507892840.23,385,12.38,73974.3,1.43,-11.81,-9.37,0,*41
1507892841.47,386,12.44,73974.8,1.39,-11.97,-9.53,0,*4A
1507892842.71,387,12.44,73968.8,1.39,-11.67,-9.53,0,*44
1507892843.97,388,12.44,73964.5,1.43,-10.41,-8.51,0,*40
1507892845.19,389,12.38,73960.8,1.37,-10.15,-8.45,0,*46
1507892846.39,390,12.44,73966.5,1.37,-9.93,-8.45,0,*78
1507892847.59,391,12.44,73956.0,1.37,-10.31,-8.93,0,*42
1507892848.8,392,12.38,73978.3,1.35,-10.27,-8.51,0,*4A
1507892849.99,393,12.44,73964.5,1.35,-11.45,-9.93,0,*41
1507892851.24,394,12.38,73938.0,1.35,-13.29,-11.63,0,*78
1507892852.45,395,12.44,73960.3,1.31,-10.15,-9.15,0,*49
1507892853.67,396,12.38,73952.3,1.29,-9.37,-8.67,0,*7F
1507892854.9,397,12.38,73960.3,1.29,-9.41,-9.05,0,*7A
1507892856.14,398,12.44,73970.5,1.27,-9.37,-9.49,0,*72
1507892857.34,399,12.38,73976.3,1.29,-9.75,-9.89,0,*77
1507892858.58,400,12.44,73974.0,1.29,-10.71,-10.85,0,*78
1507892859.78,401,12.44,73972.8,1.27,-11.45,-11.15,0,*79
1507892860.97,402,12.38,73974.5,1.27,-12.03,-10.89,0,*7F
1507892862.16,403,12.38,73984.3,1.27,-12.93,-10.49,0,*7B
1507892863.4,404,12.44,73980.5,1.27,-12.65,-9.11,0,*40
1507892864.61,405,12.44,73992.0,1.27,-11.93,-8.71,0,*4C
1507892865.8,406,12.38,74006.3,1.27,-11.01,-8.93,0,*48
1507892867.07,407,12.38,73980.0,1.25,-11.59,-11.07,0,*73
1507892868.29,408,12.44,73986.0,1.23,-10.79,-11.45,0,*7F
1507892869.53,409,12.38,73988.3,1.21,-10.09,-11.93,0,*70
1507892870.76,410,12.44,73994.3,1.21,-10.23,-13.01,0,*79
1507892872.01,411,12.38,74002.8,1.21,-11.23,-14.47,0,*7C
1507892873.23,412,12.44,74010.8,1.17,-12.43,-15.71,0,*7B
1507892874.46,413,12.44,74018.8,1.17,-13.51,-16.59,0,*71
1507892875.7,414,12.38,74016.3,1.17,-15.25,-17.93,0,*74
1507892876.93,415,12.38,74012.8,1.13,-16.51,-19.07,0,*72
1507892878.15,416,12.44,74006.5,1.11,-16.23,-18.69,0,*7F
1507892879.35,417,12.44,73998.5,1.11,-15.63,-17.83,0,*72
1507892880.55,418,12.44,73990.3,1.11,-15.71,-17.69,0,*7A
1507892881.8,419,12.44,73996.0,1.13,-15.63,-17.41,0,*70
1507892883.06,420,12.44,73990.3,1.17,-15.85,-17.17,0,*75
1507892884.31,421,12.44,73990.3,1.17,-15.89,-16.59,0,*73
1507892885.58,422,12.38,73992.8,1.25,-16.17,-16.23,0,*78
1507892886.82,423,12.44,73992.0,1.25,-15.49,-15.43,0,*74
1507892888.04,424,12.38,73988.0,1.29,-15.29,-15.75,0,*7C
1507892889.26,425,12.38,73996.3,1.33,-15.49,-16.75,0,*73
1507892890.46,426,12.38,74002.3,1.33,-15.99,-17.73,0,*7A
1507892891.67,427,12.38,74026.5,1.37,-16.75,-19.03,0,*77
1507892892.87,428,12.38,74022.5,1.35,-18.25,-20.43,0,*7F
1507892894.08,429,12.44,74016.3,1.37,-18.21,-19.91,0,*7D
1507892895.3,430,12.44,74024.3,1.39,-18.99,-19.61,0,*77
1507892896.52,431,12.44,74022.8,1.39,-20.35,-19.37,0,*78
1507892897.76,432,12.44,74038.3,1.39,-20.19,-17.45,0,*7E
1507892898.96,433,12.44,74038.3,1.39,-21.39,-16.59,0,*70
1507892900.19,434,12.38,74028.5,1.39,-21.67,-15.25,0,*74
1507892901.43,435,12.44,74008.5,1.43,-18.21,-12.65,0,*73
1507892902.64,436,12.38,74002.3,1.39,-15.11,-11.85,0,*7E
1507892903.88,437,12.38,74000.0,1.43,-14.65,-14.05,0,*7D
1507892905.13,438,12.44,74000.5,1.43,-14.37,-16.09,0,*7B
1507892906.34,439,12.44,74000.3,1.43,-16.55,-18.83,0,*70
1507892907.56,440,12.38,73990.8,1.39,-17.83,-18.89,0,*73
1507892908.8,441,12.44,74000.5,1.37,-18.07,-17.63,0,*74
1507892910.04,442,12.44,74008.0,1.37,-17.35,-16.27,0,*78
1507892911.26,443,12.38,73998.5,1.35,-16.83,-16.23,0,*73
1507892912.46,444,12.38,73998.3,1.37,-16.93,-16.45,0,*77
1507892913.7,445,12.44,73998.3,1.37,-17.93,-17.49,0,*7A
1507892914.92,446,12.44,74002.5,1.35,-19.31,-17.83,0,*7B
1507892916.15,447,12.44,74000.3,1.35,-19.81,-17.21,0,*79
1507892917.37,448,12.44,74002.0,1.35,-19.51,-17.25,0,*7F
1507892918.62,449,12.38,73992.5,1.33,-19.27,-16.55,0,*7F
1507892919.84,450,12.44,73988.8,1.33,-19.07,-15.95,0,*7A
1507892921.08,451,12.38,73990.0,1.33,-19.47,-16.27,0,*75
1507892922.34,452,12.44,73990.5,1.33,-20.53,-16.13,0,*7E
1507892923.58,453,12.44,73990.5,1.33,-20.35,-14.61,0,*78
1507892924.81,454,12.38,73990.8,1.33,-20.79,-14.61,0,*77
1507892926.02,455,12.38,73976.8,1.33,-19.75,-14.19,0,*7F